COSMOS 1275 DEB, 42197

Orbit data source: Space-Track

COSMOS 1275 DEB, 42197 is space debris in LEO originally from a launch on Thu, 04 Jun 1981 UTC launched from the Plesetsk Missile And Space Complex (PKMTR). Debris objects in space refer to the collection of defunct objects orbiting the Earth. Examples of debris include non-operational satellites, rocket bodies, and fragments generated from explosions, collisions, or faulty payload assembly.

Loading next visibility...
Identifier
42197, 1981-053TM
Orbit
LEO
Country
Flag of CISCIS
Related business
Manufacturer
Unknown
Mission
Spacecraft
Bus & Motor
Unknown
Mass
Unknown
Launch date (UTC)
1981-06-04 (45 years ago)
Launch vehicle
Unknown
Launch site
Plesetsk Missile And Space Complex (PKMTR)
Object type
Payload
Rocket body
Debris
Shape & HBR
Unknown shape, 0.1 m
Radar Cross Section
Small (<0.1 m²)

Expand to show TLE details & history
Last TLE update: 6 hours ago

TLE from 6 hours ago
0 COSMOS 1275 DEB
1 42197U 81053TM  26125.53773164  .00001060  00000-0  11096-2 0  9998
2 42197  82.8476  50.4468 0117987   8.9968 351.3261 13.71281102621422
Epoch: 2026-05-05T12:54Z
TLE epoch observation values (Epoch: 2026-05-05T12:54:20.013Z)
Latitude
-0.00004°
Longitude
-6.54774°
Altitude
911.876 km
Speed
7.439 km/s
True Right ascension
03h 21m 47s
True Declination
0° 00' 00"
Sunlit
Object was in daylight at epoch
Visualization orbit readout
Latitude
Unknown
Longitude
Unknown
Altitude
Unknown
Speed
Unknown
Apparent Right ascension
Unknown
Apparent Declination
Unknown
Sunlit
N/A
Visualization observer readout
Local Sidereal Time
03:10:45
Azimuth
Unknown
Elevation
Unknown
Doppler factor
Unknown
Orbital elements
Apogee altitude
1,079.092 km
Perigee altitude
905.173 km
Semi-major axis
7,370.269 km
Eccentricity
0.0118
Inclination
82.8476°
RAAN
50.4468°
Arg. of periapsis
8.9968°
True anomaly
351.11918°
Mean anomaly
351.3261°
Eccentric anomaly
351.22295°
Mean motion
3.43019 °/min
Orbital period
104.95 mins
BSTAR
0.0011096
Loading maneuver chart data...
Computing Atmospheric mass density...
Loading historical data...
Loading historical data...
Loading historical data...
Loading historical data...
Loading historical data...
Loading historical data...
Loading historical data...

Documentation

Showing up to 5 results
|